N2PUI Weather Reports


time (UTC)temp
C
wind
direction
speed
KPH
gust
KPH
rain 1hr
cm
rain 24hr
cm
rain mn
cm
humidity
%
barometer
mb
20260507191930 11 93 3.2 4.8 0.00 0.05 0.05 53 1010.7
20260507191426 11 46 3.2 8.0 0.00 0.05 0.05 52 1010.7
20260507190923 11 304 14.5 17.7 0.00 0.05 0.05 50 1010.7
20260507190421 11 258 9.7 11.3 0.00 0.05 0.05 49 1010.5
20260507185920 11 1 4.8 8.0 0.00 0.05 0.05 50 1010.6
20260507185417 11 197 8.0 9.7 0.00 0.05 0.05 49 1010.7
20260507184913 11 307 4.8 8.0 0.00 0.05 0.05 51 1010.9
20260507184411 11 240 6.4 8.0 0.00 0.05 0.05 51 1010.8
20260507183908 11 170 3.2 3.2 0.00 0.05 0.05 50 1010.7
20260507183405 12 290 6.4 8.0 0.00 0.05 0.05 49 1010.7
20260507182903 11 275 4.8 4.8 0.00 0.05 0.05 49 1011.0
20260507182358 11 243 4.8 8.0 0.00 0.05 0.05 48 1011.2
20260507181855 11 303 16.1 20.9 0.00 0.05 0.05 48 1011.0
20260507181350 11 307 8.0 11.3 0.00 0.05 0.05 48 1011.0
20260507180848 11 292 9.7 11.3 0.00 0.05 0.05 48 1010.8
20260507180344 12 295 8.0 11.3 0.00 0.05 0.05 48 1011.0
20260507175840 11 201 1.6 3.2 0.00 0.05 0.05 49 1011.2
20260507175337 11 318 4.8 11.3 0.00 0.05 0.05 49 1011.4
20260507174835 11 13 4.8 8.0 0.00 0.05 0.05 49 1011.1
20260507174332 11 314 4.8 4.8 0.00 0.05 0.05 50 1011.3
20260507173829 11 345 12.9 17.7 0.00 0.05 0.05 48 1011.1
20260507173326 11 120 3.2 4.8 0.00 0.05 0.05 50 1011.2
20260507172822 11 221 3.2 3.2 0.00 0.05 0.05 48 1011.2
20260507172319 12 291 8.0 11.3 0.00 0.05 0.05 47 1011.2
20260507171815 12 201 1.6 1.6 0.00 0.05 0.05 48 1011.2
20260507171312 12 237 4.8 9.7 0.00 0.05 0.05 47 1011.2
20260507170809 12 261 4.8 8.0 0.00 0.05 0.05 48 1011.3
20260507170306 12 296 9.7 14.5 0.00 0.05 0.05 46 1011.4
20260507165801 11 208 8.0 11.3 0.00 0.05 0.05 51 1011.6
20260507165258 11 258 14.5 17.7 0.00 0.05 0.05 50 1011.4
20260507164754 11 302 8.0 11.3 0.00 0.05 0.05 49 1011.6
20260507164251 11 316 12.9 20.9 0.00 0.05 0.05 49 1011.4
20260507163748 11 226 9.7 12.9 0.00 0.05 0.05 49 1011.4
20260507163246 11 268 8.0 11.3 0.00 0.05 0.05 49 1011.8
20260507162742 11 247 11.3 11.3 0.00 0.05 0.05 49 1011.7
20260507162238 11 286 11.3 14.5 0.00 0.05 0.05 48 1011.9
20260507161735 11 262 6.4 8.0 0.00 0.05 0.05 48 1011.7
20260507161231 11 253 1.6 3.2 0.00 0.05 0.05 50 1011.8
20260507160727 11 282 8.0 9.7 0.00 0.05 0.05 49 1012.0
20260507160224 11 123 1.6 1.6 0.00 0.05 0.05 50 1011.9
20260507155720 12 294 12.9 14.5 0.00 0.05 0.05 48 1012.0
20260507155216 11 219 6.4 9.7 0.00 0.05 0.05 51 1012.0
20260507154713 10 219 4.8 4.8 0.00 0.05 0.05 53 1012.3
20260507154211 10 281 8.0 9.7 0.00 0.05 0.05 51 1012.1
20260507153707 11 22 4.8 8.0 0.00 0.05 0.05 50 1012.0
20260507153203 11 66 4.8 4.8 0.00 0.05 0.05 53 1012.2
20260507152700 10 113 1.6 1.6 0.00 0.05 0.05 52 1012.2
20260507152156 10 24 6.4 8.0 0.00 0.05 0.05 52 1012.3
20260507151652 11 328 11.3 14.5 0.00 0.05 0.05 49 1012.2
20260507151149 11 164 0.0 0.0 0.00 0.05 0.05 50 1012.5
20260507150646 10 6 4.8 4.8 0.00 0.05 0.05 50 1012.3
20260507150143 10 78 6.4 8.0 0.00 0.05 0.05 51 1012.5
20260507145638 11 99 3.2 3.2 0.00 0.05 0.05 52 1012.4
20260507145136 11 234 4.8 4.8 0.00 0.05 0.05 47 1012.8
20260507144632 11 266 8.0 9.7 0.00 0.05 0.05 49 1012.7
20260507144130 10 151 3.2 3.2 0.00 0.05 0.05 50 1012.8
20260507143626 10 194 1.6 1.6 0.00 0.05 0.05 48 1012.8
20260507143124 10 232 3.2 4.8 0.00 0.05 0.05 49 1012.8
20260507142619 10 279 6.4 12.9 0.00 0.05 0.05 50 1012.8
20260507142116 10 60 3.2 3.2 0.00 0.05 0.05 50 1012.7
20260507141612 10 179 1.6 1.6 0.00 0.05 0.05 52 1012.8
20260507141109 10 301 3.2 8.0 0.00 0.05 0.05 55 1012.6
20260507140606 10 222 4.8 4.8 0.00 0.05 0.05 56 1012.7
20260507140103 9 180 3.2 4.8 0.00 0.05 0.05 58 1012.8
20260507135600 9 343 4.8 8.0 0.00 0.05 0.05 57 1013.0
20260507135058 8 229 3.2 4.8 0.00 0.05 0.05 62 1012.9
20260507134554 8 335 4.8 8.0 0.00 0.05 0.05 63 1013.1
20260507134050 8 162 1.6 1.6 0.00 0.05 0.05 63 1013.1
20260507133546 8 157 1.6 1.6 0.00 0.05 0.05 64 1013.0
20260507133044 7 118 1.6 3.2 0.00 0.05 0.05 67 1013.1
20260507132540 7 204 0.0 1.6 0.00 0.05 0.05 69 1013.0
20260507132036 7 303 6.4 8.0 0.00 0.05 0.05 68 1013.1
20260507131534 7 205 4.8 4.8 0.00 0.05 0.05 70 1012.9
20260507131031 7 108 3.2 3.2 0.00 0.05 0.05 69 1013.0
20260507130528 7 143 1.6 1.6 0.00 0.05 0.05 70 1013.3
20260507130026 7 338 4.8 8.0 0.00 0.05 0.05 70 1013.5
20260507125524 6 94 1.6 3.2 0.00 0.05 0.05 71 1013.1
20260507125021 6 39 4.8 4.8 0.00 0.05 0.05 72 1013.1
20260507124517 6 344 3.2 4.8 0.00 0.05 0.05 73 1013.5
20260507124016 6 324 6.4 8.0 0.00 0.05 0.05 75 1013.0
20260507123513 6 170 0.0 0.0 0.00 0.05 0.05 77 1013.3
20260507123010 6 43 1.6 3.2 0.00 0.05 0.05 78 1013.5
20260507122504 5 122 1.6 1.6 0.00 0.05 0.05 81 1013.4
20260507122001 5 276 4.8 4.8 0.00 0.05 0.05 83 1013.1
20260507121456 5 206 1.6 3.2 0.00 0.05 0.05 85 1013.4
20260507120948 5 199 1.6 3.2 0.00 0.05 0.05 86 1013.6
20260507120444 4 299 3.2 3.2 0.00 0.05 0.05 87 1013.1
20260507115941 4 289 3.2 3.2 0.00 0.05 0.05 89 1013.0
20260507115436 4 195 1.6 3.2 0.00 0.05 0.05 90 1012.9
20260507114932 4 279 3.2 3.2 0.00 0.05 0.05 90 1013.1
20260507114429 4 173 1.6 1.6 0.00 0.05 0.05 91 1012.9
20260507113927 4 168 0.0 1.6 0.00 0.05 0.05 91 1013.1
20260507113423 3 168 1.6 1.6 0.00 0.05 0.05 91 1013.0
20260507112921 3 184 1.6 1.6 0.00 0.05 0.05 91 1012.9
20260507112418 3 163 0.0 0.0 0.00 0.05 0.05 91 1013.3
20260507111915 3 175 1.6 1.6 0.00 0.05 0.05 91 1013.1
20260507111413 3 148 0.0 0.0 0.00 0.05 0.05 92 1013.0
20260507110909 2 141 0.0 0.0 0.00 0.05 0.05 92 1012.6
20260507110405 2 139 0.0 0.0 0.00 0.05 0.05 92 1012.7
20260507105901 2 126 1.6 1.6 0.00 0.05 0.05 92 1012.9
20260507105358 2 125 1.6 1.6 0.00 0.05 0.05 91 1012.9
20260507104855 1 147 0.0 1.6 0.00 0.05 0.05 91 1012.7
20260507104352 1 117 1.6 1.6 0.00 0.05 0.05 91 1012.9
20260507103848 1 128 1.6 1.6 0.00 0.05 0.05 91 1012.8
20260507103344 1 133 0.0 0.0 0.00 0.05 0.05 91 1012.9
20260507102841 1 148 0.0 0.0 0.00 0.05 0.05 91 1012.9
20260507102337 1 147 0.0 0.0 0.00 0.05 0.05 91 1012.6
20260507101833 1 139 1.6 1.6 0.00 0.05 0.05 91 1012.5
20260507101328 1 149 0.0 0.0 0.00 0.05 0.05 90 1012.7
20260507100826 1 162 0.0 0.0 0.00 0.05 0.05 90 1012.7
20260507100324 1 103 3.2 3.2 0.00 0.05 0.05 90 1012.3
20260507095821 1 128 1.6 1.6 0.00 0.05 0.05 90 1012.5
20260507095317 1 117 1.6 1.6 0.00 0.05 0.05 90 1012.4
20260507094815 1 151 0.0 0.0 0.00 0.05 0.05 90 1012.4
20260507094311 2 126 1.6 1.6 0.00 0.05 0.05 90 1012.6
20260507093808 1 91 3.2 4.8 0.00 0.05 0.05 89 1012.5
20260507093307 2 112 1.6 1.6 0.00 0.05 0.05 89 1012.8
20260507092804 2 86 3.2 3.2 0.00 0.05 0.05 89 1012.7
20260507092300 2 128 1.6 1.6 0.00 0.05 0.05 89 1012.5
20260507091757 2 126 1.6 1.6 0.00 0.05 0.05 88 1012.7
20260507091253 2 80 1.6 3.2 0.00 0.05 0.05 88 1012.7
20260507090748 2 111 3.2 3.2 0.00 0.05 0.05 88 1012.6
20260507090245 2 133 1.6 1.6 0.00 0.05 0.05 87 1012.7
20260507085742 2 101 3.2 3.2 0.00 0.05 0.05 87 1012.6
20260507085239 3 138 0.0 1.6 0.00 0.05 0.05 87 1012.5
20260507084736 3 114 1.6 1.6 0.00 0.05 0.05 87 1012.6
20260507084232 3 94 3.2 3.2 0.00 0.05 0.05 87 1012.6
20260507083730 3 52 4.8 4.8 0.00 0.05 0.05 87 1012.8
20260507083226 3 49 4.8 8.0 0.00 0.05 0.05 86 1012.5
20260507082722 3 49 4.8 4.8 0.00 0.05 0.05 86 1012.4
20260507082218 4 118 1.6 3.2 0.00 0.05 0.05 86 1012.7
20260507081715 4 123 1.6 1.6 0.00 0.05 0.05 86 1012.6
20260507081211 4 140 1.6 1.6 0.00 0.05 0.05 86 1012.5
20260507080708 4 135 1.6 1.6 0.00 0.05 0.05 85 1012.4
20260507080204 5 167 0.0 0.0 0.00 0.05 0.05 85 1012.5
20260507075700 5 138 1.6 1.6 0.00 0.05 0.05 85 1012.6
20260507075156 5 137 1.6 1.6 0.00 0.05 0.05 84 1012.5
20260507074653 5 128 3.2 3.2 0.00 0.05 0.05 84 1012.4
20260507074151 5 259 3.2 3.2 0.00 0.05 0.05 85 1012.6
20260507073647 5 334 4.8 4.8 0.00 0.05 0.05 84 1012.6
20260507073143 5 173 1.6 1.6 0.00 0.05 0.05 85 1012.4
20260507072642 5 173 1.6 1.6 0.00 0.05 0.05 85 1012.2
20260507072138 5 152 0.0 1.6 0.00 0.05 0.05 84 1012.4
20260507071636 5 1 0.0 3.2 0.00 0.05 0.05 85 1012.6
20260507071132 5 0 3.2 3.2 0.00 0.05 0.05 85 1012.3
20260507070629 5 36 1.6 3.2 0.00 0.05 0.05 85 1012.3
20260507070126 5 174 0.0 1.6 0.00 0.05 0.05 85 1012.2
20260507065622 5 215 1.6 1.6 0.00 0.05 0.05 86 1012.3
20260507065120 5 206 1.6 1.6 0.00 0.05 0.05 86 1012.6
20260507064617 5 290 3.2 3.2 0.00 0.05 0.05 87 1012.6
20260507064116 5 193 3.2 4.8 0.00 0.05 0.05 88 1012.3
20260507063613 5 331 8.0 11.3 0.00 0.05 0.05 88 1012.3
20260507063110 5 215 3.2 3.2 0.00 0.05 0.05 89 1012.2
20260507062606 5 107 3.2 3.2 0.00 0.05 0.05 90 1012.3
20260507062104 5 311 8.0 11.3 0.00 0.05 0.05 92 1012.2
20260507061602 5 305 3.2 9.7 0.00 0.05 0.05 93 1011.9
20260507061100 5 323 6.4 8.0 0.00 0.05 0.05 93 1012.0
20260507060557 5 342 6.4 9.7 0.00 0.05 0.05 94 1012.1
20260507060054 6 280 4.8 8.0 0.00 0.05 0.05 94 1012.1
20260507055548 6 208 6.4 8.0 0.00 0.05 0.05 94 1012.0
20260507055045 6 272 4.8 4.8 0.00 0.05 0.05 95 1011.7
20260507054541 6 288 3.2 3.2 0.00 0.05 0.05 95 1011.5
20260507054038 6 335 4.8 4.8 0.00 0.05 0.05 95 1011.8
20260507053536 6 310 4.8 4.8 0.00 0.05 0.05 95 1012.1
20260507053035 6 216 1.6 3.2 0.00 0.05 0.05 95 1012.0
20260507052532 6 175 1.6 1.6 0.00 0.05 0.05 95 1012.1
20260507052029 6 185 1.6 1.6 0.00 0.05 0.05 95 1012.1
20260507051527 6 182 1.6 1.6 0.00 0.05 0.05 94 1012.0
20260507051023 6 176 0.0 0.0 0.00 0.05 0.05 94 1012.1
20260507050519 6 205 1.6 1.6 0.00 0.05 0.05 94 1012.1
20260507050016 6 169 0.0 0.0 0.00 0.05 0.05 94 1012.1
20260507045513 6 172 0.0 0.0 0.00 0.05 0.05 94 1012.1
20260507045010 6 178 0.0 0.0 0.00 0.05 0.05 94 1012.0
20260507044507 6 186 0.0 1.6 0.18 0.05 0.05 94 1012.2
20260507044003 6 168 0.0 0.0 0.18 0.05 0.05 94 1012.1
20260507043459 6 185 1.6 1.6 0.00 0.03 0.03 94 1012.3
20260507042956 6 152 0.0 0.0 0.13 0.03 0.03 94 1012.1
20260507042453 6 151 0.0 0.0 0.13 0.03 0.03 94 1011.8
20260507041948 6 146 0.0 1.6 0.00 0.00 0.00 94 1012.0
20260507041445 6 147 0.0 0.0 0.00 0.00 0.00 94 1011.8
20260507040942 6 147 0.0 0.0 0.00 0.00 0.00 94 1011.9
20260507040438 6 136 1.6 1.6 0.00 0.00 0.00 94 1011.6
20260507035934 6 159 0.0 0.0 0.18 1.14 1.14 94 1011.5
20260507035431 6 159 0.0 0.0 0.18 1.14 1.14 94 1011.5
20260507034928 6 159 0.0 0.0 0.00 1.12 1.12 94 1011.5
20260507034425 6 148 0.0 0.0 0.00 1.12 1.12 94 1011.2
20260507033923 6 141 1.6 1.6 0.00 1.12 1.12 94 1011.4
20260507033420 6 153 0.0 0.0 0.00 1.12 1.12 94 1011.6
20260507032917 6 154 0.0 1.6 0.00 1.12 1.12 93 1011.7
20260507032414 6 134 1.6 1.6 0.00 1.12 1.12 93 1011.7
20260507031910 6 137 1.6 1.6 0.00 1.12 1.12 93 1011.5
20260507031407 6 146 0.0 1.6 0.00 1.12 1.12 93 1011.9
20260507030903 6 130 1.6 3.2 0.00 1.12 1.12 93 1011.8
20260507030401 6 148 0.0 0.0 0.00 1.12 1.12 93 1011.9
20260507025857 6 151 0.0 0.0 0.00 1.12 1.12 93 1012.0
20260507025355 6 149 0.0 0.0 0.00 1.12 1.12 93 1011.8
20260507024853 6 139 1.6 1.6 0.00 1.12 1.12 93 1011.8
20260507024350 6 157 0.0 0.0 0.00 1.12 1.12 93 1012.0
20260507023845 6 154 0.0 0.0 0.00 1.12 1.12 93 1011.9
20260507023342 6 138 1.6 1.6 0.00 1.12 1.12 93 1011.8
20260507022840 6 142 0.0 0.0 0.00 1.12 1.12 93 1012.0
20260507022336 6 162 0.0 0.0 0.00 1.12 1.12 93 1011.9
20260507021832 6 137 0.0 0.0 0.00 1.12 1.12 93 1011.8
20260507021328 6 172 0.0 0.0 0.00 1.12 1.12 92 1012.2
20260507020826 6 173 0.0 0.0 0.00 1.12 1.12 92 1012.2
20260507020322 6 173 0.0 0.0 0.00 1.12 1.12 92 1012.0
20260507015819 6 172 0.0 0.0 0.00 1.12 1.12 92 1012.1
20260507015317 6 173 0.0 0.0 0.00 1.12 1.12 92 1012.3
20260507014814 6 173 0.0 0.0 0.00 1.12 1.12 92 1012.4
20260507014310 6 172 0.0 0.0 0.00 1.12 1.12 92 1012.1
20260507013807 6 151 0.0 0.0 0.00 1.12 1.12 92 1011.8
20260507013304 6 150 0.0 0.0 0.00 1.12 1.12 92 1011.9
20260507012802 6 144 0.0 1.6 0.00 1.12 1.12 92 1012.0
20260507012257 6 172 1.6 1.6 0.00 1.12 1.12 92 1012.4
20260507011755 6 221 3.2 3.2 0.00 1.12 1.12 92 1012.1
20260507011251 7 214 1.6 1.6 0.00 1.12 1.12 92 1012.1
20260507010750 6 193 1.6 1.6 0.00 1.12 1.12 92 1011.9
20260507010247 6 172 0.0 0.0 0.00 1.12 1.12 92 1011.8
20260507005744 6 170 1.6 1.6 0.00 1.12 1.12 92 1011.9
20260507005241 7 334 4.8 4.8 0.00 1.12 1.12 92 1011.9
20260507004737 7 205 1.6 3.2 0.00 1.12 1.12 92 1011.8
20260507004235 7 197 1.6 1.6 0.00 1.12 1.12 92 1011.9
20260507003731 7 194 1.6 1.6 0.00 1.12 1.12 92 1011.5
20260507003226 7 167 0.0 1.6 0.00 1.12 1.12 92 1011.4
20260507002723 7 158 0.0 0.0 0.00 1.12 1.12 92 1011.5
20260507002219 7 175 1.6 1.6 0.00 1.12 1.12 92 1011.6
20260507001715 7 230 1.6 3.2 0.00 1.12 1.12 92 1011.5
20260507001213 7 199 1.6 3.2 0.00 1.12 1.12 92 1011.3
20260507000709 7 289 3.2 3.2 0.00 1.12 1.12 92 1011.5
20260507000205 7 172 1.6 1.6 0.00 1.12 1.12 93 1011.5
20260506235702 7 178 1.6 1.6 0.00 1.12 1.12 93 1011.3
20260506235157 7 193 1.6 1.6 0.00 1.12 1.12 93 1011.1
20260506234655 7 188 0.0 1.6 0.00 1.12 1.12 93 1011.3
20260506234151 7 180 1.6 1.6 0.00 1.12 1.12 93 1010.9
20260506233649 7 174 1.6 1.6 0.00 1.12 1.12 93 1011.0
20260506233146 7 208 1.6 1.6 0.00 1.12 1.12 93 1011.1
20260506232642 7 293 4.8 4.8 0.00 1.12 1.12 93 1011.0
20260506232137 7 198 1.6 1.6 0.00 1.12 1.12 94 1010.8
20260506231635 7 167 0.0 0.0 0.00 1.12 1.12 94 1011.1
20260506231133 7 206 1.6 1.6 0.00 1.12 1.12 94 1011.1
20260506230630 7 172 0.0 0.0 0.00 1.12 1.12 94 1010.6
20260506230127 7 146 1.6 1.6 0.00 1.12 1.12 94 1010.9
20260506225623 7 173 0.0 1.6 0.00 1.12 1.12 95 1010.7
20260506225120 7 286 3.2 3.2 0.00 1.12 1.12 95 1010.6
20260506224616 7 246 3.2 3.2 0.00 1.12 1.12 95 1010.7
20260506224113 7 208 4.8 4.8 0.00 1.12 1.12 95 1010.4
20260506223609 7 271 4.8 8.0 0.00 1.12 1.12 95 1010.3
20260506223105 7 69 1.6 1.6 0.00 1.12 1.12 95 1010.6
20260506222602 7 306 6.4 8.0 0.00 1.12 1.12 95 1010.5
20260506222059 7 164 0.0 0.0 0.00 1.12 1.12 95 1010.6
20260506221556 7 289 3.2 3.2 0.00 1.12 1.12 95 1010.5
20260506221054 7 314 8.0 9.7 0.00 1.12 1.12 95 1010.5
20260506220550 7 287 6.4 8.0 0.00 1.12 1.12 95 1010.2
20260506220046 7 324 8.0 9.7 0.00 1.12 1.12 95 1010.4
20260506215543 7 256 4.8 8.0 0.00 1.12 1.12 95 1010.4
20260506215038 7 200 4.8 4.8 0.00 1.12 1.12 95 1010.4
20260506214535 7 295 9.7 14.5 0.00 1.12 1.12 95 1010.3
20260506214033 7 290 4.8 4.8 0.00 1.12 1.12 95 1010.3
20260506213531 7 285 3.2 4.8 0.00 1.12 1.12 95 1010.0
20260506213028 7 145 1.6 3.2 0.00 1.12 1.12 95 1010.2
20260506212524 7 303 6.4 8.0 0.00 1.12 1.12 95 1010.1
20260506212019 7 158 4.8 4.8 0.00 1.12 1.12 95 1009.7
20260506211515 7 270 3.2 8.0 0.00 1.12 1.12 95 1009.5
20260506211013 7 315 4.8 9.7 0.00 1.12 1.12 95 1009.7
20260506210509 7 303 9.7 12.9 0.00 1.12 1.12 95 1009.6
20260506210006 7 337 4.8 8.0 0.00 1.12 1.12 95 1009.5
20260506205502 8 287 8.0 11.3 0.00 1.12 1.12 95 1009.2
20260506204958 8 173 0.0 0.0 0.00 1.12 1.12 95 1009.4
20260506204456 8 228 4.8 8.0 0.00 1.12 1.12 95 1009.1
20260506203953 8 149 1.6 1.6 0.00 1.12 1.12 95 1009.1
20260506203451 8 308 4.8 4.8 0.13 1.12 1.12 95 1009.3
20260506202947 8 232 4.8 4.8 0.13 1.12 1.12 95 1009.1
20260506202444 8 300 8.0 11.3 0.00 1.09 1.09 95 1008.8
20260506201941 8 262 3.2 4.8 0.00 1.09 1.09 95 1008.8
20260506201438 8 132 8.0 9.7 0.00 1.09 1.09 95 1008.5
20260506200935 8 311 4.8 8.0 0.18 1.09 1.09 95 1008.5
20260506200431 8 312 4.8 4.8 0.18 1.09 1.09 95 1008.7
20260506195928 8 121 3.2 4.8 0.00 1.07 1.07 95 1008.5
20260506195425 8 228 1.6 1.6 0.00 1.07 1.07 95 1008.4
20260506194921 8 275 3.2 4.8 0.13 1.07 1.07 95 1008.7
20260506194419 8 169 1.6 1.6 0.13 1.07 1.07 95 1008.6
20260506193915 8 66 4.8 4.8 0.00 1.04 1.04 95 1008.7
20260506193412 8 170 1.6 3.2 0.18 1.04 1.04 95 1008.8
20260506192909 8 210 1.6 1.6 0.18 1.04 1.04 95 1008.5
20260506192406 8 188 3.2 3.2 0.13 1.02 1.02 95 1008.2